TOM888 LFMT-EGNM

Flight info

Callsign TOM888
Flight time 1h 47m
Altitude 36000
Route BRUSC DCT NEKTA DCT PIMQO DCT TUPAR UN861 DIKRO UM184 HEMEL T420 AKUPA UY250 MAMUL L613 HALIF
Aircraft B738/M-SDE2E3FGHIRWXY/LB1

Departure

Time 2026-04-25 11:40
Airport Montpellier-Méditerranée Airport (LFMT)

Arrival

Time 2026-04-25 13:27
Airport Leeds Bradford Airport (EGNM)
Time Latitude Longitude Altitude Speed Heading
2026-04-25 11:08 43.58017 3.95853 14 ft 0 kts 214°
2026-04-25 11:14 43.58017 3.95852 14 ft 0 kts 215°
2026-04-25 11:33 43.58018 3.95853 14 ft 2 kts 217°
2026-04-25 11:33 43.58038 3.95872 14 ft 4 kts 222°
2026-04-25 11:33 43.58051 3.95900 16 ft 4 kts 271°
2026-04-25 11:34 43.58045 3.95931 15 ft 1 kts 299°
2026-04-25 11:34 43.58043 3.95937 15 ft 0 kts 299°
2026-04-25 11:37 43.58049 3.95922 16 ft 5 kts 299°
2026-04-25 11:37 43.58083 3.95850 14 ft 13 kts 306°
2026-04-25 11:37 43.58166 3.95760 14 ft 18 kts
2026-04-25 11:37 43.58269 3.95824 12 ft 17 kts 340°
2026-04-25 11:38 43.58343 3.95701 11 ft 16 kts 304°
2026-04-25 11:38 43.58407 3.95573 12 ft 16 kts 304°
2026-04-25 11:38 43.58491 3.95494 11 ft 15 kts
2026-04-25 11:38 43.58580 3.95559 11 ft 10 kts 33°
2026-04-25 11:39 43.58595 3.95590 11 ft 4 kts 85°
2026-04-25 11:39 43.58565 3.95666 10 ft 20 kts 124°
2026-04-25 11:39 43.58341 3.96109 13 ft 91 kts 125°
2026-04-25 11:39 43.57855 3.97073 13 ft 151 kts 125°
2026-04-25 11:40 43.57197 3.98382 422 ft 168 kts 125°
2026-04-25 11:40 43.56535 3.99701 1228 ft 170 kts 126°
2026-04-25 11:40 43.55827 4.01107 1812 ft 187 kts 124°
2026-04-25 11:40 43.55022 4.02716 2129 ft 219 kts 124°
2026-04-25 11:41 43.53863 4.04238 2374 ft 244 kts 154°
2026-04-25 11:41 43.52135 4.04602 2671 ft 264 kts 191°
2026-04-25 11:41 43.50487 4.03562 3395 ft 268 kts 222°
2026-04-25 11:41 43.49428 4.01511 4311 ft 265 kts 253°
2026-04-25 11:42 43.49300 3.99008 5184 ft 265 kts 281°
2026-04-25 11:42 43.49654 3.96498 6021 ft 270 kts 282°
2026-04-25 11:42 43.49998 3.93938 6833 ft 274 kts 281°
2026-04-25 11:42 43.50317 3.91339 7679 ft 275 kts 281°
2026-04-25 11:43 43.50621 3.88730 8558 ft 276 kts 281°
2026-04-25 11:43 43.51070 3.86158 9410 ft 277 kts 291°
2026-04-25 11:43 43.51753 3.83675 10264 ft 278 kts 294°
2026-04-25 11:43 43.52498 3.81179 10686 ft 297 kts 294°
2026-04-25 11:44 43.53321 3.78442 10840 ft 321 kts 294°
2026-04-25 11:44 43.54199 3.75489 11039 ft 344 kts 294°
2026-04-25 11:44 43.55118 3.72355 11431 ft 358 kts 293°
2026-04-25 11:44 43.56045 3.69145 12100 ft 362 kts 293°
2026-04-25 11:45 43.56973 3.65903 12861 ft 364 kts 292°
2026-04-25 11:45 43.57902 3.62641 13601 ft 367 kts 292°
2026-04-25 11:45 43.58838 3.59342 14255 ft 371 kts 292°
2026-04-25 11:45 43.59778 3.56020 14837 ft 375 kts 292°
2026-04-25 11:46 43.60720 3.52687 15409 ft 380 kts 292°
2026-04-25 11:46 43.61683 3.49272 16001 ft 384 kts 292°
2026-04-25 11:46 43.62657 3.45816 16595 ft 388 kts 292°
2026-04-25 11:46 43.63640 3.42321 17167 ft 393 kts 292°
2026-04-25 11:47 43.64634 3.38785 17734 ft 397 kts 291°
2026-04-25 11:47 43.65637 3.35208 18306 ft 401 kts 291°
2026-04-25 11:47 43.66648 3.31596 18811 ft 405 kts 291°
2026-04-25 11:47 43.67666 3.27958 19361 ft 407 kts 291°
2026-04-25 11:48 43.68686 3.24307 19909 ft 409 kts 291°
2026-04-25 11:48 43.69699 3.20675 20412 ft 412 kts 291°
2026-04-25 11:48 43.70732 3.16964 20905 ft 415 kts 291°
2026-04-25 11:48 43.71771 3.13228 21410 ft 418 kts 291°
2026-04-25 11:49 43.72816 3.09467 21906 ft 420 kts 291°
2026-04-25 11:49 43.73865 3.05683 22378 ft 423 kts 290°
2026-04-25 11:49 43.74913 3.01906 23135 ft 418 kts 291°
2026-04-25 11:49 43.76322 2.98384 23512 ft 425 kts 309°
2026-04-25 11:50 43.78623 2.95775 23805 ft 434 kts 331°
2026-04-25 11:50 43.81472 2.94544 24231 ft 440 kts 352°
2026-04-25 11:50 43.84539 2.94707 24697 ft 443 kts
2026-04-25 11:50 43.87600 2.94550 25016 ft 443 kts 344°
2026-04-25 11:51 43.90391 2.92834 25344 ft 440 kts 322°
2026-04-25 11:51 43.92513 2.89835 25813 ft 436 kts 303°
2026-04-25 11:51 43.94052 2.86220 26219 ft 436 kts 297°
2026-04-25 11:51 43.95388 2.82422 26500 ft 440 kts 295°
2026-04-25 11:52 43.96741 2.78593 26778 ft 444 kts 298°
2026-04-25 11:52 43.98334 2.74905 27056 ft 447 kts 303°
2026-04-25 11:52 44.00204 2.71451 27454 ft 449 kts 309°
2026-04-25 11:52 44.02261 2.68250 27763 ft 452 kts 313°
2026-04-25 11:53 44.04491 2.65153 28052 ft 454 kts 315°
2026-04-25 11:53 44.06802 2.62144 28401 ft 456 kts 316°
2026-04-25 11:53 44.09147 2.59179 28847 ft 455 kts 317°
2026-04-25 11:53 44.11489 2.56242 29379 ft 452 kts 317°
2026-04-25 11:54 44.13810 2.53323 29908 ft 449 kts 316°
2026-04-25 11:54 44.16115 2.50406 30375 ft 447 kts 316°
2026-04-25 11:54 44.20666 2.44595 31018 ft 447 kts 316°
2026-04-25 11:55 44.22952 2.41659 31337 ft 447 kts 316°
2026-04-25 11:55 44.25231 2.38726 31691 ft 446 kts 316°
2026-04-25 11:55 44.27505 2.35794 32054 ft 444 kts 316°
2026-04-25 11:55 44.29774 2.32866 32396 ft 444 kts 316°
2026-04-25 11:56 44.32042 2.29937 32711 ft 444 kts 316°
2026-04-25 11:56 44.34305 2.27009 33053 ft 443 kts 316°
2026-04-25 11:56 44.36561 2.24090 33413 ft 441 kts 316°
2026-04-25 11:56 44.38809 2.21177 33753 ft 440 kts 316°
2026-04-25 11:57 44.41022 2.18306 34049 ft 440 kts 316°
2026-04-25 11:57 44.43264 2.15396 34350 ft 439 kts 316°
2026-04-25 11:57 44.45500 2.12489 34604 ft 439 kts 315°
2026-04-25 11:57 44.47738 2.09576 34805 ft 440 kts 315°
2026-04-25 11:58 44.49982 2.06653 35003 ft 441 kts 315°
2026-04-25 11:58 44.52225 2.03727 35239 ft 440 kts 315°
2026-04-25 11:58 44.54464 2.00803 35462 ft 440 kts 315°
2026-04-25 11:58 44.56678 1.97910 35667 ft 441 kts 315°
2026-04-25 11:59 44.58922 1.94974 35880 ft 441 kts 315°
2026-04-25 11:59 44.61166 1.92034 36099 ft 441 kts 315°
2026-04-25 11:59 44.63416 1.89083 36151 ft 445 kts 315°
2026-04-25 12:00 44.70192 1.80178 36159 ft 442 kts 315°
2026-04-25 12:01 44.76856 1.71390 36164 ft 438 kts 315°
2026-04-25 12:01 44.81287 1.65530 36167 ft 436 kts 315°
2026-04-25 12:02 44.87914 1.56742 36167 ft 436 kts 315°
2026-04-25 12:02 44.92308 1.50899 36173 ft 438 kts 314°
2026-04-25 12:03 44.96747 1.44982 36169 ft 440 kts 314°
2026-04-25 12:03 45.01206 1.39025 36163 ft 442 kts 314°
2026-04-25 12:04 45.05683 1.33032 36159 ft 444 kts 314°
2026-04-25 12:04 45.10144 1.27046 36163 ft 446 kts 314°
2026-04-25 12:05 45.14646 1.20993 36159 ft 447 kts 314°
2026-04-25 12:05 45.19109 1.14863 36168 ft 447 kts 313°
2026-04-25 12:06 45.23491 1.08628 36154 ft 446 kts 312°
2026-04-25 12:06 45.27828 1.02431 36155 ft 445 kts 312°
2026-04-25 12:07 45.32186 0.96215 36155 ft 443 kts 312°
2026-04-25 12:07 45.36529 0.90020 36154 ft 442 kts 312°
2026-04-25 12:08 45.40859 0.83832 36155 ft 441 kts 312°
2026-04-25 12:08 45.45178 0.77646 36153 ft 440 kts 312°
2026-04-25 12:09 45.49456 0.71505 36158 ft 440 kts 311°
2026-04-25 12:09 45.53762 0.65308 36158 ft 440 kts 311°
2026-04-25 12:10 45.58069 0.59095 36168 ft 440 kts 311°
2026-04-25 12:10 45.62377 0.52867 36162 ft 441 kts 311°
2026-04-25 12:11 45.66662 0.46658 36158 ft 442 kts 311°
2026-04-25 12:11 45.70979 0.40388 36159 ft 443 kts 311°
2026-04-25 12:12 45.74569 0.35162 36151 ft 443 kts 311°
2026-04-25 12:12 45.79623 0.27789 36162 ft 444 kts 311°
2026-04-25 12:13 45.83950 0.21458 36157 ft 445 kts 311°
2026-04-25 12:13 45.88249 0.15155 36158 ft 445 kts 311°
2026-04-25 12:14 45.92582 0.08788 36155 ft 446 kts 311°
2026-04-25 12:14 45.96915 0.02405 36157 ft 446 kts 311°
2026-04-25 12:15 46.01246 -0.03991 36152 ft 447 kts 311°
2026-04-25 12:15 46.05554 -0.10367 36152 ft 447 kts 311°
2026-04-25 12:16 46.09890 -0.16801 36144 ft 448 kts 311°
2026-04-25 12:16 46.14224 -0.23248 36146 ft 448 kts 310°
2026-04-25 12:17 46.18560 -0.29712 36150 ft 448 kts 310°
2026-04-25 12:17 46.22894 -0.36189 36149 ft 448 kts 310°
2026-04-25 12:18 46.27193 -0.42631 36140 ft 448 kts 310°
2026-04-25 12:18 46.31519 -0.49128 36147 ft 448 kts 310°
2026-04-25 12:19 46.38000 -0.58891 36146 ft 448 kts 310°
2026-04-25 12:20 46.42670 -0.64788 36143 ft 455 kts 328°
2026-04-25 12:20 46.45580 -0.66627 36133 ft 460 kts 341°
2026-04-25 12:20 46.48728 -0.67531 36163 ft 463 kts 350°
2026-04-25 12:21 46.55144 -0.68522 36134 ft 464 kts 352°
2026-04-25 12:21 46.61567 -0.69478 36148 ft 464 kts 351°
2026-04-25 12:22 46.67996 -0.70514 36137 ft 465 kts 351°
2026-04-25 12:22 46.74381 -0.71587 36141 ft 465 kts 351°
2026-04-25 12:23 46.80807 -0.72679 36140 ft 465 kts 351°
2026-04-25 12:23 46.87239 -0.73772 36140 ft 465 kts 351°
2026-04-25 12:24 46.93673 -0.74867 36132 ft 465 kts 351°
2026-04-25 12:24 47.00061 -0.75955 36151 ft 465 kts 351°
2026-04-25 12:25 47.06498 -0.77054 36140 ft 466 kts 351°
2026-04-25 12:25 47.12933 -0.78156 36141 ft 465 kts 351°
2026-04-25 12:26 47.19362 -0.79259 36148 ft 465 kts 351°
2026-04-25 12:26 47.25792 -0.80365 36139 ft 465 kts 351°
2026-04-25 12:27 47.32174 -0.81466 36137 ft 465 kts 351°
2026-04-25 12:27 47.38589 -0.82576 36145 ft 464 kts 351°
2026-04-25 12:28 47.45005 -0.83688 36141 ft 464 kts 351°
2026-04-25 12:28 47.51381 -0.84796 36133 ft 464 kts 351°
2026-04-25 12:29 47.57806 -0.85813 36136 ft 465 kts 353°
2026-04-25 12:29 47.64260 -0.86567 36134 ft 465 kts 353°
2026-04-25 12:30 47.70718 -0.87297 36137 ft 465 kts 353°
2026-04-25 12:30 47.77170 -0.88062 36136 ft 465 kts 353°
2026-04-25 12:31 47.83585 -0.88846 36155 ft 466 kts 353°
2026-04-25 12:31 47.90046 -0.89642 36153 ft 466 kts 353°
2026-04-25 12:32 47.96506 -0.90440 36157 ft 466 kts 353°
2026-04-25 12:32 48.02965 -0.91239 36161 ft 466 kts 353°
2026-04-25 12:33 48.09381 -0.92034 36153 ft 466 kts 353°
2026-04-25 12:33 48.15838 -0.92837 36152 ft 465 kts 353°
2026-04-25 12:34 48.22294 -0.93641 36164 ft 465 kts 353°
2026-04-25 12:34 48.28743 -0.94447 36148 ft 465 kts 353°
2026-04-25 12:35 48.35148 -0.95248 36151 ft 465 kts 353°
2026-04-25 12:35 48.41598 -0.96058 36154 ft 465 kts 353°
2026-04-25 12:36 48.48050 -0.96869 36158 ft 465 kts 353°
2026-04-25 12:36 48.54498 -0.97683 36152 ft 466 kts 353°
2026-04-25 12:37 48.60957 -0.98500 36156 ft 465 kts 353°
2026-04-25 12:37 48.67372 -0.99313 36164 ft 466 kts 353°
2026-04-25 12:38 48.73833 -1.00135 36166 ft 466 kts 353°
2026-04-25 12:38 48.80305 -1.00960 36165 ft 467 kts 353°
2026-04-25 12:39 48.86783 -1.01788 36162 ft 467 kts 353°
2026-04-25 12:39 48.93216 -1.02612 36171 ft 467 kts 353°
2026-04-25 12:40 48.99697 -1.03444 36176 ft 468 kts 353°
2026-04-25 12:40 49.06186 -1.04280 36168 ft 468 kts 353°
2026-04-25 12:41 49.12672 -1.05118 36182 ft 468 kts 353°
2026-04-25 12:41 49.19158 -1.05957 36174 ft 467 kts 353°
2026-04-25 12:42 49.25587 -1.06792 36183 ft 467 kts 352°
2026-04-25 12:42 49.32050 -1.07633 36173 ft 466 kts 353°
2026-04-25 12:43 49.38498 -1.08475 36184 ft 464 kts 353°
2026-04-25 12:43 49.48142 -1.09737 36184 ft 463 kts 353°
2026-04-25 12:44 49.54503 -1.10573 36196 ft 462 kts 353°
2026-04-25 12:45 49.64132 -1.10524 36199 ft 464 kts
2026-04-25 12:45 49.73755 -1.08987 36191 ft 463 kts
2026-04-25 12:46 49.80181 -1.08117 36201 ft 464 kts
2026-04-25 12:46 49.86574 -1.07260 36206 ft 464 kts
2026-04-25 12:47 49.93016 -1.06378 36205 ft 465 kts
2026-04-25 12:47 49.99471 -1.05481 36225 ft 466 kts
2026-04-25 12:48 50.05876 -1.03735 36217 ft 468 kts 11°
2026-04-25 12:48 50.12223 -1.01429 36207 ft 469 kts 11°
2026-04-25 12:49 50.18532 -0.99152 36215 ft 468 kts 11°
2026-04-25 12:49 50.24887 -0.96941 36223 ft 467 kts 10°
2026-04-25 12:50 50.31233 -0.94770 36214 ft 467 kts 10°
2026-04-25 12:50 50.37569 -0.92602 36218 ft 465 kts 10°
2026-04-25 12:51 50.43892 -0.90430 36229 ft 465 kts 10°
2026-04-25 12:51 50.50165 -0.88268 36228 ft 465 kts 10°
2026-04-25 12:52 50.56487 -0.86082 36228 ft 465 kts 10°
2026-04-25 12:52 50.62816 -0.83887 36230 ft 466 kts 10°
2026-04-25 12:53 50.69151 -0.81684 36237 ft 467 kts 10°
2026-04-25 12:53 50.74427 -0.79845 36227 ft 467 kts 10°
2026-04-25 12:54 50.80775 -0.77626 36222 ft 468 kts 10°
2026-04-25 12:54 50.88158 -0.75038 36236 ft 468 kts 10°
2026-04-25 12:55 50.92412 -0.73543 36232 ft 468 kts 10°
2026-04-25 12:55 50.99793 -0.70942 36220 ft 467 kts 10°
2026-04-25 12:56 51.06131 -0.68702 36215 ft 466 kts 10°
2026-04-25 12:56 51.12457 -0.66459 36212 ft 465 kts 10°
2026-04-25 12:57 51.18763 -0.64218 36212 ft 464 kts 10°
2026-04-25 12:57 51.25054 -0.61976 36211 ft 463 kts 10°
2026-04-25 12:58 51.31295 -0.59746 36214 ft 462 kts 10°
2026-04-25 12:58 51.37564 -0.57499 36220 ft 462 kts 10°
2026-04-25 12:59 51.43830 -0.55247 36208 ft 461 kts 10°
2026-04-25 12:59 51.50082 -0.52993 36212 ft 460 kts 10°
2026-04-25 13:00 51.55274 -0.51117 36208 ft 460 kts 10°
2026-04-25 13:00 51.62527 -0.48488 36217 ft 459 kts 10°
2026-04-25 13:01 51.68761 -0.46222 36211 ft 459 kts 10°
2026-04-25 13:01 51.74997 -0.43950 36212 ft 459 kts 10°
2026-04-25 13:02 51.78139 -0.43136 36191 ft 456 kts 358°
2026-04-25 13:02 51.81262 -0.43616 36239 ft 449 kts 344°
2026-04-25 13:02 51.84203 -0.45232 36204 ft 445 kts 331°
2026-04-25 13:02 51.86867 -0.47754 36066 ft 446 kts 325°
2026-04-25 13:03 51.89499 -0.50483 35459 ft 450 kts 325°
2026-04-25 13:03 51.92105 -0.53136 34868 ft 449 kts 326°
2026-04-25 13:03 51.94771 -0.55780 34240 ft 450 kts 327°
2026-04-25 13:03 51.97454 -0.58397 33501 ft 451 kts 327°
2026-04-25 13:04 52.00145 -0.61012 32787 ft 451 kts 327°
2026-04-25 13:04 52.02837 -0.63632 32082 ft 451 kts 327°
2026-04-25 13:04 52.05532 -0.66264 31381 ft 452 kts 327°
2026-04-25 13:04 52.08226 -0.68903 30683 ft 453 kts 327°
2026-04-25 13:05 52.10913 -0.71540 30181 ft 449 kts 327°
2026-04-25 13:05 52.13575 -0.74157 29569 ft 445 kts 326°
2026-04-25 13:05 52.16170 -0.76723 29051 ft 440 kts 326°
2026-04-25 13:05 52.18769 -0.79302 28531 ft 435 kts 326°
2026-04-25 13:06 52.21342 -0.81857 27990 ft 431 kts 326°
2026-04-25 13:06 52.23888 -0.84387 27487 ft 427 kts 326°
2026-04-25 13:06 52.26416 -0.86898 26966 ft 424 kts 326°
2026-04-25 13:06 52.28926 -0.89386 26466 ft 420 kts 327°
2026-04-25 13:07 52.31417 -0.91856 25971 ft 417 kts 327°
2026-04-25 13:07 52.33891 -0.94313 25461 ft 415 kts 327°
2026-04-25 13:07 52.36350 -0.96759 24965 ft 412 kts 327°
2026-04-25 13:07 52.38794 -0.99194 24481 ft 410 kts 327°
2026-04-25 13:08 52.41192 -1.01586 23976 ft 409 kts 326°
2026-04-25 13:08 52.43619 -1.04010 23407 ft 408 kts 326°
2026-04-25 13:08 52.46047 -1.06388 22871 ft 406 kts 330°
2026-04-25 13:08 52.48666 -1.08096 22338 ft 406 kts 343°
2026-04-25 13:09 52.51437 -1.08910 21850 ft 405 kts 354°
2026-04-25 13:09 52.54247 -1.08882 21368 ft 403 kts
2026-04-25 13:09 52.57031 -1.08619 20877 ft 400 kts
2026-04-25 13:09 52.59799 -1.08343 20396 ft 397 kts
2026-04-25 13:10 52.62549 -1.08090 19921 ft 394 kts
2026-04-25 13:10 52.65240 -1.07867 19457 ft 391 kts
2026-04-25 13:10 52.67949 -1.07659 18993 ft 389 kts
2026-04-25 13:10 52.70643 -1.07458 18526 ft 386 kts
2026-04-25 13:11 52.73321 -1.07277 17994 ft 384 kts 359°
2026-04-25 13:11 52.75962 -1.07616 17497 ft 379 kts 349°
2026-04-25 13:11 52.78476 -1.08375 17046 ft 375 kts 348°
2026-04-25 13:11 52.81031 -1.09187 16566 ft 373 kts 347°
2026-04-25 13:12 52.83570 -1.09998 16068 ft 370 kts 348°
2026-04-25 13:12 52.86106 -1.10799 15486 ft 371 kts 348°
2026-04-25 13:12 52.88605 -1.11578 15017 ft 369 kts 348°
2026-04-25 13:12 52.90305 -1.12103 14699 ft 368 kts 348°
2026-04-25 13:13 52.93625 -1.13124 14086 ft 365 kts 348°
2026-04-25 13:13 52.96113 -1.13886 13582 ft 363 kts 348°
2026-04-25 13:13 52.98585 -1.14643 13090 ft 360 kts 348°
2026-04-25 13:13 53.01040 -1.15395 12625 ft 357 kts 348°
2026-04-25 13:14 53.03470 -1.16139 12177 ft 353 kts 348°
2026-04-25 13:14 53.05877 -1.16878 11732 ft 350 kts 348°
2026-04-25 13:14 53.08266 -1.17612 11288 ft 348 kts 348°
2026-04-25 13:14 53.10604 -1.18330 10882 ft 344 kts 348°
2026-04-25 13:15 53.12917 -1.19040 10761 ft 332 kts 348°
2026-04-25 13:15 53.15157 -1.19730 10605 ft 322 kts 348°
2026-04-25 13:15 53.17332 -1.20400 10470 ft 313 kts 348°
2026-04-25 13:15 53.19441 -1.21050 10337 ft 304 kts 348°
2026-04-25 13:16 53.21492 -1.21684 10211 ft 296 kts 348°
2026-04-25 13:16 53.23486 -1.22301 10083 ft 287 kts 348°
2026-04-25 13:16 53.25424 -1.22902 9974 ft 279 kts 348°
2026-04-25 13:16 53.27304 -1.23484 9690 ft 276 kts 348°
2026-04-25 13:17 53.29162 -1.24062 9420 ft 274 kts 348°
2026-04-25 13:17 53.31033 -1.24644 9134 ft 273 kts 348°
2026-04-25 13:17 53.32896 -1.25224 8847 ft 272 kts 348°
2026-04-25 13:17 53.34752 -1.25802 8573 ft 271 kts 348°
2026-04-25 13:18 53.36600 -1.26377 8297 ft 270 kts 348°
2026-04-25 13:18 53.38440 -1.26951 8028 ft 268 kts 348°
2026-04-25 13:18 53.40269 -1.27521 7747 ft 267 kts 348°
2026-04-25 13:18 53.42087 -1.28112 7477 ft 265 kts 345°
2026-04-25 13:19 53.43838 -1.29031 7217 ft 263 kts 339°
2026-04-25 13:19 53.45530 -1.30083 6963 ft 262 kts 338°
2026-04-25 13:19 53.47235 -1.31166 6693 ft 262 kts 338°
2026-04-25 13:19 53.48384 -1.31892 6518 ft 261 kts 338°
2026-04-25 13:20 53.50637 -1.33301 6138 ft 261 kts 339°
2026-04-25 13:20 53.52336 -1.34354 5861 ft 260 kts 339°
2026-04-25 13:20 53.54032 -1.35401 5610 ft 259 kts 339°
2026-04-25 13:20 53.55728 -1.36441 5344 ft 260 kts 339°
2026-04-25 13:21 53.57427 -1.37482 5087 ft 258 kts 339°
2026-04-25 13:21 53.59091 -1.38500 4989 ft 252 kts 339°
2026-04-25 13:21 53.60720 -1.39497 4861 ft 246 kts 339°
2026-04-25 13:21 53.62284 -1.40454 4742 ft 239 kts 339°
2026-04-25 13:22 53.63823 -1.41395 4640 ft 232 kts 339°
2026-04-25 13:22 53.65315 -1.42308 4500 ft 226 kts 339°
2026-04-25 13:22 53.66775 -1.43204 4289 ft 220 kts 339°
2026-04-25 13:23 53.69586 -1.44929 3818 ft 209 kts 340°
2026-04-25 13:23 53.70935 -1.45757 3601 ft 204 kts 340°
2026-04-25 13:23 53.72240 -1.46560 3454 ft 195 kts 340°
2026-04-25 13:23 53.73495 -1.47332 3344 ft 192 kts 340°
2026-04-25 13:24 53.74731 -1.48116 3228 ft 193 kts 335°
2026-04-25 13:24 53.75806 -1.49393 3103 ft 185 kts 319°
2026-04-25 13:24 53.76735 -1.50831 2997 ft 178 kts 318°
2026-04-25 13:24 53.77653 -1.52267 2909 ft 183 kts 319°
2026-04-25 13:25 53.78595 -1.53724 2681 ft 183 kts 319°
2026-04-25 13:25 53.79533 -1.55172 2433 ft 182 kts 319°
2026-04-25 13:25 53.80462 -1.56607 2187 ft 179 kts 320°
2026-04-25 13:25 53.81376 -1.58018 1956 ft 176 kts 318°
2026-04-25 13:26 53.82260 -1.59384 1736 ft 167 kts 319°
2026-04-25 13:26 53.83072 -1.60635 1490 ft 155 kts 319°
2026-04-25 13:26 53.83854 -1.61839 1290 ft 150 kts 320°
2026-04-25 13:26 53.84636 -1.63019 1086 ft 153 kts 320°
2026-04-25 13:27 53.85423 -1.64257 879 ft 155 kts 320°
2026-04-25 13:27 53.86211 -1.65479 684 ft 151 kts 319°
2026-04-25 13:27 53.86898 -1.66528 670 ft 105 kts 317°
2026-04-25 13:27 53.87224 -1.66995 686 ft 24 kts 349°
2026-04-25 13:28 53.87378 -1.67004 688 ft 19 kts 332°
2026-04-25 13:28 53.87388 -1.67131 690 ft 18 kts 237°
2026-04-25 13:28 53.87245 -1.67065 683 ft 23 kts 138°
2026-04-25 13:28 53.87088 -1.66822 679 ft 38 kts 137°
2026-04-25 13:29 53.86960 -1.66613 671 ft 11 kts 107°
2026-04-25 13:29 53.86994 -1.66497 672 ft 11 kts 73°
2026-04-25 13:29 53.86974 -1.66372 669 ft 12 kts 115°
2026-04-25 13:30 53.86843 -1.66131 666 ft 14 kts 137°
2026-04-25 13:30 53.86814 -1.65983 665 ft 14 kts 92°
2026-04-25 13:30 53.86812 -1.65827 664 ft 13 kts 91°
2026-04-25 13:31 53.86818 -1.65564 663 ft 5 kts 63°
2026-04-25 13:31 53.86849 -1.65549 664 ft 5 kts
2026-04-25 13:31 53.86873 -1.65548 664 ft 2 kts
2026-04-25 13:31 53.86877 -1.65548 664 ft 0 kts